| time (UTC) | temp F | wind direction | speed knots | gust knots | rain 1hr in | rain 24hr in | rain mn in | humidity % | barometer mb |
| 20260509143020 | 52 | 196 | 0.0 | 0.0 | 0.00 | 0.00 | 0.00 | 90 | 1023.0 |
| 20260509141533 | 49 | 196 | 0.0 | 0.0 | 0.00 | 0.00 | 0.00 | 92 | 1022.9 |
| 20260509140010 | 47 | 196 | 0.0 | 0.0 | 0.00 | 0.00 | 0.00 | 92 | 1023.1 |
| 20260509134514 | 47 | 196 | 0.0 | 0.0 | 0.00 | 0.00 | 0.00 | 92 | 1022.9 |
| 20260509133017 | 47 | 196 | 0.0 | 0.0 | 0.00 | 0.00 | 0.00 | 92 | 1023.1 |
| 20260509131520 | 47 | 196 | 0.0 | 0.0 | 0.00 | 0.00 | 0.00 | 92 | 1023.1 |
| 20260509130007 | 46 | 196 | 0.0 | 0.0 | 0.00 | 0.00 | 0.00 | 92 | 1022.9 |
| 20260509124527 | 46 | 196 | 0.0 | 0.0 | 0.00 | 0.00 | 0.00 | 91 | 1023.0 |
| 20260509123029 | 47 | 196 | 0.0 | 0.0 | 0.00 | 0.00 | 0.00 | 91 | 1022.9 |
| 20260509121530 | 47 | 196 | 0.0 | 0.0 | 0.00 | 0.00 | 0.00 | 91 | 1022.9 |
| 20260509120014 | 47 | 196 | 0.0 | 0.0 | 0.00 | 0.00 | 0.00 | 92 | 1023.1 |
| 20260509114517 | 46 | 196 | 0.0 | 0.0 | 0.00 | 0.00 | 0.00 | 92 | 1023.2 |
| 20260509113021 | 46 | 196 | 0.0 | 0.0 | 0.00 | 0.00 | 0.00 | 91 | 1023.2 |
| 20260509111542 | 46 | 196 | 0.0 | 0.0 | 0.00 | 0.00 | 0.00 | 91 | 1023.2 |
| 20260509110048 | 46 | 196 | 0.0 | 0.9 | 0.00 | 0.00 | 0.00 | 91 | 1023.3 |
| 20260509104533 | 46 | 196 | 0.0 | 0.0 | 0.00 | 0.00 | 0.00 | 91 | 1023.2 |
| 20260509103034 | 46 | 196 | 0.0 | 0.0 | 0.00 | 0.00 | 0.00 | 91 | 1023.1 |
| 20260509101537 | 46 | 196 | 0.0 | 0.9 | 0.00 | 0.00 | 0.00 | 91 | 1023.0 |
| 20260509100041 | 46 | 196 | 0.0 | 1.7 | 0.00 | 0.00 | 0.00 | 92 | 1022.9 |
| 20260509094526 | 45 | 196 | 0.0 | 0.0 | 0.00 | 0.00 | 0.00 | 92 | 1022.9 |
| 20260509093030 | 45 | 196 | 0.0 | 0.9 | 0.00 | 0.00 | 0.00 | 92 | 1023.0 |
| 20260509091541 | 44 | 196 | 0.0 | 0.9 | 0.00 | 0.00 | 0.00 | 92 | 1023.0 |
| 20260509090049 | 44 | 196 | 0.0 | 0.9 | 0.00 | 0.00 | 0.00 | 92 | 1023.1 |
| 20260509084535 | 43 | 196 | 0.0 | 0.9 | 0.00 | 0.00 | 0.00 | 92 | 1023.1 |
| 20260509083040 | 42 | 196 | 0.0 | 0.0 | 0.00 | 0.00 | 0.00 | 92 | 1023.3 |
| 20260509081543 | 42 | 196 | 0.0 | 0.9 | 0.00 | 0.00 | 0.00 | 92 | 1023.3 |
| 20260509080040 | 42 | 196 | 0.0 | 0.9 | 0.00 | 0.00 | 0.00 | 91 | 1023.3 |
| 20260509074526 | 42 | 196 | 0.0 | 0.0 | 0.00 | 0.00 | 0.00 | 91 | 1023.3 |
| 20260509073031 | 42 | 196 | 0.0 | 0.0 | 0.00 | 0.00 | 0.00 | 91 | 1023.3 |
| 20260509071533 | 42 | 196 | 0.0 | 0.0 | 0.00 | 0.00 | 0.00 | 91 | 1023.2 |
| 20260509070018 | 43 | 196 | 0.0 | 0.0 | 0.00 | 0.00 | 0.00 | 91 | 1023.1 |
| 20260509064523 | 43 | 196 | 0.0 | 0.0 | 0.00 | 0.00 | 0.00 | 90 | 1023.2 |
| 20260509063026 | 44 | 196 | 0.0 | 1.7 | 0.00 | 0.00 | 0.00 | 90 | 1023.1 |
| 20260509061529 | 44 | 196 | 0.0 | 0.0 | 0.00 | 0.00 | 0.00 | 90 | 1023.1 |
| 20260509060014 | 45 | 196 | 0.0 | 0.0 | 0.00 | 0.00 | 0.00 | 89 | 1023.1 |
| 20260509054525 | 46 | 196 | 0.0 | 0.0 | 0.00 | 0.00 | 0.00 | 89 | 1023.1 |
| 20260509053057 | 46 | 196 | 0.0 | 0.0 | 0.00 | 0.00 | 0.00 | 88 | 1023.0 |
| 20260509051542 | 47 | 196 | 0.0 | 0.0 | 0.00 | 0.00 | 0.00 | 87 | 1023.0 |
| 20260509050036 | 48 | 196 | 0.0 | 0.0 | 0.00 | 0.00 | 0.00 | 84 | 1023.0 |
| 20260509044524 | 50 | 196 | 0.0 | 0.0 | 0.00 | 0.00 | 0.00 | 84 | 1023.0 |
| 20260509043028 | 50 | 196 | 0.0 | 0.0 | 0.00 | 0.00 | 0.00 | 82 | 1022.9 |
| 20260509041532 | 52 | 196 | 0.0 | 0.9 | 0.00 | 0.00 | 0.00 | 80 | 1022.8 |
| 20260509040017 | 52 | 210 | 0.0 | 0.9 | 0.00 | 0.00 | 0.00 | 80 | 1022.7 |
| 20260509034520 | 53 | 210 | 0.0 | 1.7 | 0.00 | 0.00 | 0.00 | 78 | 1022.6 |
| 20260509033022 | 53 | 213 | 0.0 | 2.6 | 0.00 | 0.00 | 0.00 | 76 | 1022.5 |
| 20260509031525 | 54 | 213 | 0.0 | 2.6 | 0.00 | 0.00 | 0.00 | 75 | 1022.5 |
| 20260509030025 | 54 | 231 | 0.9 | 3.5 | 0.00 | 0.00 | 0.00 | 74 | 1022.5 |
| 20260509024514 | 55 | 220 | 0.9 | 3.5 | 0.00 | 0.00 | 0.00 | 74 | 1022.4 |
| 20260509023026 | 54 | 233 | 0.0 | 3.5 | 0.00 | 0.00 | 0.00 | 74 | 1022.3 |
| 20260509021522 | 54 | 238 | 0.9 | 4.3 | 0.00 | 0.00 | 0.00 | 74 | 1022.2 |
| 20260509020007 | 54 | 216 | 0.9 | 5.2 | 0.00 | 0.00 | 0.00 | 74 | 1022.1 |
| 20260509014520 | 55 | 197 | 0.9 | 4.3 | 0.00 | 0.00 | 0.00 | 73 | 1022.1 |
| 20260509013027 | 55 | 219 | 1.7 | 5.2 | 0.00 | 0.00 | 0.00 | 71 | 1022.1 |
| 20260509011530 | 56 | 236 | 1.7 | 4.3 | 0.00 | 0.00 | 0.00 | 69 | 1022.1 |
| 20260509010014 | 56 | 245 | 1.7 | 5.2 | 0.00 | 0.00 | 0.00 | 69 | 1022.1 |
| 20260509004526 | 56 | 245 | 2.6 | 6.1 | 0.00 | 0.00 | 0.00 | 68 | 1022.2 |
| 20260509003042 | 56 | 242 | 1.7 | 5.2 | 0.00 | 0.00 | 0.00 | 69 | 1022.2 |
| 20260509001539 | 56 | 238 | 2.6 | 6.1 | 0.00 | 0.00 | 0.00 | 69 | 1022.2 |
| 20260509000024 | 56 | 207 | 1.7 | 4.3 | 0.00 | 0.00 | 0.00 | 69 | 1022.2 |
| 20260508234529 | 56 | 238 | 1.7 | 4.3 | 0.00 | 0.00 | 0.00 | 69 | 1022.2 |
| 20260508233030 | 56 | 193 | 1.7 | 4.3 | 0.00 | 0.00 | 0.00 | 67 | 1022.1 |
| 20260508231537 | 57 | 261 | 0.0 | 2.6 | 0.00 | 0.00 | 0.00 | 69 | 1022.1 |
| 20260508230020 | 57 | 352 | 0.9 | 2.6 | 0.00 | 0.00 | 0.00 | 70 | 1022.0 |
| 20260508224523 | 56 | 352 | 0.0 | 2.6 | 0.00 | 0.00 | 0.00 | 70 | 1021.9 |
| 20260508223028 | 57 | 300 | 0.0 | 1.7 | 0.00 | 0.00 | 0.00 | 71 | 1021.9 |
| 20260508221527 | 56 | 222 | 0.0 | 4.3 | 0.00 | 0.00 | 0.00 | 70 | 1022.0 |
| 20260508220019 | 55 | 204 | 0.9 | 4.3 | 0.00 | 0.00 | 0.00 | 71 | 1022.0 |
| 20260508184613 | 51 | 236 | 0.0 | 6.1 | 0.00 | 0.00 | 0.00 | 82 | 1020.8 |
| 20260508183100 | 51 | 188 | 2.6 | 6.1 | 0.00 | 0.00 | 0.00 | 81 | 1020.7 |
| 20260508181551 | 51 | 207 | 1.7 | 4.3 | 0.00 | 0.00 | 0.00 | 81 | 1020.8 |
| 20260508174600 | 51 | 228 | 2.6 | 6.1 | 0.00 | 0.00 | 0.00 | 83 | 1020.5 |
| 20260508173100 | 51 | 219 | 1.7 | 6.1 | 0.00 | 0.00 | 0.00 | 84 | 1020.1 |
| 20260508171604 | 51 | 236 | 0.9 | 5.2 | 0.00 | 0.00 | 0.00 | 84 | 1020.2 |
| 20260508170106 | 50 | 198 | 0.9 | 4.3 | 0.00 | 0.00 | 0.00 | 84 | 1020.1 |
| 20260508164552 | 50 | 182 | 1.7 | 5.2 | 0.00 | 0.00 | 0.00 | 85 | 1019.8 |
| 20260508163116 | 51 | 205 | 1.7 | 8.7 | 0.00 | 0.00 | 0.00 | 85 | 1019.6 |
| 20260508161601 | 51 | 218 | 2.6 | 6.1 | 0.00 | 0.00 | 0.00 | 85 | 1019.3 |
| 20260508160103 | 51 | 227 | 3.5 | 7.0 | 0.00 | 0.00 | 0.00 | 85 | 1019.2 |
| 20260508154553 | 51 | 228 | 1.7 | 4.3 | 0.00 | 0.00 | 0.00 | 85 | 1019.2 |
| 20260508153056 | 51 | 191 | 1.7 | 3.5 | 0.00 | 0.00 | 0.00 | 86 | 1019.2 |
| 20260508151554 | 50 | 176 | 1.7 | 5.2 | 0.00 | 0.00 | 0.00 | 87 | 1018.8 |
| 20260508150106 | 50 | 219 | 3.5 | 6.1 | 0.00 | 0.00 | 0.00 | 88 | 1019.1 |
| 20260508144551 | 50 | 188 | 1.7 | 4.3 | 0.00 | 0.00 | 0.00 | 88 | 1018.9 |